Regional Weather Roundup
Issued by NWS

Home | Current Version | Previous Version | Graphics & Text | Print | Product List | Glossary On
Versions: 1 2 3 4 5 6 7 8 9 10 11 12 13 14 15 16 17 18 19 20 21 22 23 24 25 26 27 28 29 30 31 32 33 34 35 36 37 38 39 40 41 42 43 44 45 46 47 48 49 50
000
ASUS43 KFSD 290902
RWRSD

WEATHER ROUNDUP FOR SOUTH DAKOTA
NATIONAL WEATHER SERVICE SIOUX FALLS SD
300 AM CST MON DEC 29 2014

NOTE: "FAIR" INDICATES FEW OR NO CLOUDS BELOW 12,000 FEET WITH NO
SIGNIFICANT WEATHER AND/OR OBSTRUCTIONS TO VISIBILITY.


SDZ001>005-009-010-012>017-291000-
NORTHWEST AND NORTH CENTRAL SOUTH DAKOTA

CITY           SKY/WX    TMP DP  RH WIND       PRES   REMARKS
BUFFALO          N/A      6   2  83 NE13      30.26R WCI -10
FAITH            N/A      5   1  83 NE15      30.34R WCI -13
MOBRIDGE       FLURRIES   4  -3  73 NE14      30.42R WCI -14
$$

SDZ012>016-024>037-041>051-057-063-072>074-291000-
SOUTHWEST AND SOUTH CENTRAL SOUTH DAKOTA

CITY           SKY/WX    TMP DP  RH WIND       PRES   REMARKS
RAPID CTY ARPT LGT SNOW  10   7  87 NE12      30.26R FOG     WCI  -5
PIERRE         CLOUDY     7   1  76 NE14      30.39R WCI -10
CUSTER         CLOUDY     9   6  88 NE9       30.04R WCI  -4
ELLSWORTH AFB  LGT SNOW  11   8  88 NE10      30.26R WCI  -3
PHILIP         LGT SNOW   9   4  80 NE13      30.35R WCI  -7
PINE RIDGE     LGT SNOW  14  10  84 NE13      30.18R FOG     WCI   0
WINNER         LGT SNOW  11   7  84 NE12      30.31R WCI  -3
$$

SDZ004>011-016>023-039-040-291000-
NORTHEAST SOUTH DAKOTA

CITY           SKY/WX    TMP DP  RH WIND       PRES   REMARKS
ABERDEEN       CLOUDY     1  -6  72 NE17      30.49R WCI -19
WATERTOWN      PTCLDY    -1  -7  75 N14       30.38R WCI -20
SISSETON         N/A     -3  -8  79 N14       30.50R WCI -22
$$

SDZ017-020-022-023-036>040-048>070-291000-
SOUTHEAST SOUTH DAKOTA

CITY           SKY/WX    TMP DP  RH WIND       PRES   REMARKS
SIOUX FALLS    FLURRIES  11   7  84 NE14      30.35R WCI  -5
HURON          CLOUDY     7   1  76 N13       30.42R WCI  -9
MITCHELL       LGT SNOW  13   9  84 N10       30.39R FOG     WCI   0
YANKTON        PTCLDY    16  10  79 NE9       30.35R WCI   4
$$

ABBREVIATIONS USED IN REMARKS
   TC - TEMPERATURE IN CELSIUS
  WCI - WIND CHILL INDEX
   HX - HEAT INDEX
  VSB - VISIBILITY



USA.gov is the U.S. government's official web portal to all federal, state and local government web resources and services.